Location: ??????
(41.2893°N, 20.5965°E)
Time: 12:54:02
(UTC+00:00)

Daily predictions for brighter satellites

Satellite Brightness Start Highest point End
(mag) Time Altitude Azimuth Time Altitude Azimuth Time Altitude Azimuth
Cosmos 1151 Rocket 3.6 15:29:58 10° SSE 15:33:53 37° E 15:37:49 10° NNE
Radarsat Rocket 4.2 15:30:55 10° SSE 15:36:56 67° ENE 15:43:43 10° N
SL-8 Rocket 4.2 15:32:34 10° N 15:38:38 50° ENE 15:44:42 10° SSE
CZ-4C R/B 3.1 15:35:04 10° NNE 15:38:44 89° ESE 15:42:19 10° SSW
CZ-4B DEB 4.3 15:34:26 10° SSE 15:39:55 88° ENE 15:45:25 10° NNW
Cosmos 2341 Rocket 4.1 15:33:41 10° N 15:40:00 67° E 15:46:18 10° SSE
Cosmos 2278 Rocket 4.4 15:36:21 10° NW 15:41:16 31° WSW 15:46:09 10° SSW
Cosmos 2285 Rocket 4.0 15:43:52 10° NNW 15:50:14 65° ENE 15:56:30 10° SSE
CORIOLIS 4.3 15:45:16 10° SSE 15:50:30 53° ENE 15:55:48 10° N
COSMO-SKYMED 1 4.0 15:47:22 10° NE 15:50:33 20° E 15:53:42 10° SE
USA 81 4.2 15:47:07 10° N 15:52:17 51° E 15:57:24 10° SSE
USA 267 4.5 15:47:19 10° ENE 15:52:19 24° N 15:57:20 10° NW
PAYLOAD B 4.3 15:47:18 10° SSE 15:52:54 87° WSW 15:58:29 10° NNW
X-37B 0.6 15:51:14 10° WSW 15:54:25 79° NNW 15:57:12 13° ENE
BREEZE-M TANK 3.4 15:49:20 10° WNW 15:55:00 54° SSW 15:58:13 10° SE
H-2A R/B 3.8 15:54:40 10° ENE 15:55:17 11° ENE 15:56:26 10° NE
Meteor 1-4 Rocket 2.8 15:55:03 10° SSE 15:58:29 45° E 16:01:54 10° NNE
Cosmos 1812 4.4 15:58:05 10° ESE 16:00:19 15° E 16:01:27 13° ENE
Cosmos 1328 Rocket 3.5 15:57:16 10° S 16:01:32 68° E 16:05:52 10° NNE
Cosmos 2181 Rocket 4.0 15:55:09 10° S 16:01:33 79° E 16:07:55 10° N
Cosmos 1939 Rocket 3.8 15:58:52 10° SE 16:02:02 25° ENE 16:05:15 10° NNE
CZ-4 R/B 3.3 16:05:25 12° NE 16:05:25 12° NE 16:06:23 10° NNE
Meteor 1-20 Rocket 4.3 15:58:31 10° N 16:04:24 81° E 16:10:11 10° SSE
Cosmos 2237 Rocket 4.3 16:01:21 10° WSW 16:05:38 22° NW 16:09:57 10° N
NOAA 11 4.2 16:00:58 10° SSE 16:06:14 56° ENE 16:11:33 10° N
Cosmos 1933 Rocket 4.3 16:02:59 10° NNE 16:07:01 32° ENE 16:11:02 10° SE
CZ-4B R/B 3.1 16:02:04 10° SSE 16:07:23 88° E 16:12:42 10° NNW
Cosmos 1666 Rocket 3.8 16:03:42 10° NNW 16:08:08 74° W 16:12:33 10° S
Meteor 1-26 Rocket 4.4 16:03:37 10° S 16:09:37 74° E 16:15:37 10° NNE
Cosmos 1603 4.1 16:04:37 10° S 16:09:53 42° ESE 16:15:01 11° NE
Cosmos 44 4.1 16:04:52 10° NW 16:10:10 64° WSW 16:15:31 10° SSE
CZ-3B R/B 2.1 16:06:42 10° SSW 16:10:24 32° SE 16:11:29 20° E
H-2A R/B 3.5 16:06:16 10° S 16:10:25 51° W 16:14:26 10° NNW
Cosmos 1602 3.8 16:07:46 10° N 16:11:37 53° E 16:15:24 10° SSE
Cosmos 1943 3.7 16:08:08 10° S 16:13:20 40° ESE 16:18:07 12° NE
Cosmos 1538 Rocket 4.0 16:11:37 10° S 16:16:57 74° ESE 16:22:21 10° NNE
NOAA 12 4.3 16:11:44 10° S 16:17:03 80° WSW 16:22:24 10° NNW
Cosmos 2369 Rocket 2.4 16:12:12 10° NNW 16:17:43 50° ENE 16:23:10 10° SE
CENTAUR R/B 3.5 16:13:36 10° SSE 16:17:57 23° ESE 16:20:30 18° ENE
Cosmos 1943 Rocket 2.1 16:13:43 10° NNW 16:19:19 83° ENE 16:24:55 10° SSE
CZ-2D R/B 4.1 16:16:14 10° SE 16:19:27 26° ENE 16:22:42 10° NNE
Meteor 1-14 Rocket 4.4 16:13:51 10° N 16:19:45 57° ENE 16:25:37 10° SSE
H-2A R/B 3.2 16:18:33 10° N 16:22:35 43° WNW 16:26:40 10° SW
Okean O Rocket 1.9 16:19:37 10° S 16:23:56 69° WSW 16:28:20 10° NNW
Cosmos 1782 2.7 16:21:28 10° S 16:25:25 89° W 16:29:24 10° N
Okean-O 3.6 16:22:01 10° ESE 16:25:37 25° ENE 16:29:14 10° NNE
NOSS 3-2 (C) 4.3 16:21:21 10° SSE 16:25:42 24° ESE 16:27:40 20° E
SL-08 R/B 4.4 16:22:28 10° N 16:28:33 60° E 16:34:33 10° SSE
Cosmos 1633 Rocket 4.1 16:28:06 10° NNW 16:32:18 47° W 16:36:27 10° SSW
ISS -1.7 16:30:38 10° NNW 16:32:44 15° N 16:32:58 15° NNE
SKYMED 2 3.5 16:34:31 10° NNE 16:38:52 66° ESE 16:43:09 10° S
Cosmos 2218 Rocket 4.3 16:32:48 10° NNW 16:38:54 67° W 16:45:00 10° S
ERS-2 2.1 16:36:10 11° NNE 16:39:45 83° WNW 16:43:24 10° SSW
Cosmos 2366 rocket 4.3 16:33:45 10° NNW 16:39:53 69° W 16:45:57 10° S
Meteor 1-10 Rocket 4.4 16:36:17 10° SSE 16:41:39 46° E 16:46:16 13° NNE
Lacrosse 5 rocket 3.5 16:47:09 10° NW 16:48:51 13° NNW 16:50:15 11° N
NOSS 3-2 (A) 3.2 16:45:12 10° SSW 16:50:40 67° ESE 16:54:01 27° NE
Feng Yun 1-1 Rocket 4.3 16:48:34 10° SSE 16:54:21 83° WSW 16:59:59 10° NNW
SL-16 R/B 4.3 16:54:21 10° WSW 16:58:44 23° NW 17:03:10 10° N
CZ-4B R/B 3.1 16:56:26 10° N 16:59:10 30° WNW 17:01:59 10° SW
Cosmos 2239 Rocket 4.4 16:54:53 10° N 17:01:00 62° E 17:07:08 10° SSE
USA 215 3.2 16:59:20 30° NE 17:02:50 77° SE 17:09:23 10° SW
BREEZE-M DEB (TANK) 4.5 17:02:57 10° NW 17:03:26 13° NW 17:03:26 13° NW
YAOGAN 1 3.9 17:09:19 26° N 17:09:19 26° N 17:11:19 10° N
Cosmos 1500 3.3 17:04:06 10° NNW 17:07:56 73° W 17:11:45 10° S
USA 238 DEB 3.5 17:03:20 10° SSW 17:09:52 80° ESE 17:13:06 34° NE
USA 238 3.5 17:03:26 10° SSW 17:09:58 80° ESE 17:13:10 34° NE
Cosmos 1656 Rocket 3.5 17:07:37 10° NNW 17:13:16 77° ENE 17:17:20 19° SSE
NOAA 15 4.4 17:10:50 10° SSE 17:16:05 74° ENE 17:21:22 10° N
MOS 1 Rocket 3.5 17:13:25 26° NNE 17:16:33 78° E 17:21:53 10° S
Cosmos 158 Rocket 4.0 17:14:02 10° SSW 17:19:00 73° WNW 17:20:54 37° N
CZ-2C R/B 2.8 17:14:04 10° SSE 17:19:06 90° ENE 17:23:57 10° NNW
Cosmos 2263 4.4 17:16:28 10° NNW 17:22:03 70° WSW 17:27:36 10° SSE
Cosmos 923 Rocket 4.2 17:17:12 10° SSW 17:22:21 67° WNW 17:24:49 31° N
Cosmos 1934 Rocket 3.9 17:17:38 10° N 17:23:58 65° E 17:30:12 10° SSE
USA 281 3.1 17:18:58 10° SSE 17:25:31 76° ENE 17:32:05 10° NNW
CSL-04 Debris 4.4 17:27:30 53° NNE 17:27:30 53° NNE 17:31:57 10° N
COSMO-SKYMED 1 4.0 17:23:06 12° N 17:26:48 36° WNW 17:30:47 10° SW
Cosmos 1238 Rocket 3.3 17:22:49 10° NNW 17:26:59 72° W 17:32:02 10° S
Nadezhda 3 Rocket 4.4 17:22:09 10° SSW 17:28:27 64° W 17:34:48 10° N
X-37B 3.1 17:28:15 10° WNW 17:29:28 20° WNW 17:29:28 20° WNW
Cosmos 2228 Rocket 4.1 17:27:30 10° SSW 17:31:51 45° WNW 17:34:29 22° NNW
H-2A R/B 2.5 17:35:18 50° N 17:35:18 50° N 17:39:03 10° N
USA 267 3.6 17:34:11 46° NNE 17:34:18 46° NNE 17:40:28 10° NW
Cosmos 1812 4.3 17:32:16 10° SW 17:35:45 33° WNW 17:36:35 30° NW
CZ-4 R/B 3.5 17:41:27 20° NNW 17:41:27 20° NNW 17:42:53 10° NNW
Meteor 1-11 Rocket 3.8 17:37:11 10° NNW 17:43:01 81° W 17:48:55 10° S
BREEZE-M DEB (TANK) 4.2 17:41:21 10° WSW 17:42:53 24° WSW 17:42:53 24° WSW
NOSS 3-3 (A) 4.4 17:37:09 10° NW 17:44:50 86° ENE 17:47:58 44° SE
NOSS 3-3 (C) 4.4 17:37:14 10° NW 17:44:56 85° NE 17:47:58 45° SE
Cosmos 44 Rocket 3.7 17:40:42 10° NW 17:45:08 64° NW 17:45:08 64° NW
Lacrosse 4 Rocket 3.2 17:45:07 10° SW 17:46:59 26° SW 17:46:59 26° SW
Cosmos 1680 Rocket 4.2 17:44:10 10° SW 17:49:17 51° WNW 17:50:18 45° NNW
Cosmos 2369 Rocket 4.4 17:57:00 10° NW 18:01:21 23° W 18:05:41 10° SSW
Okean-O 4.4 17:58:03 10° SSW 18:01:57 30° W 18:05:53 10° NW
CENTAUR R/B 2.8 18:02:02 10° SW 18:07:44 61° NW 18:07:44 61° NW
NOSS 3-2 (C) 4.0 18:10:32 10° SW 18:15:09 49° WNW 18:15:09 49° WNW
USA 215 4.4 18:46:42 36° NW 18:46:42 36° NW 18:51:28 10° W
